GW3733 Weather Reports


time (UTC)temp
F
wind
direction
speed
knots
gust
knots
rain 1hr
in
rain 24hr
in
rain mn
in
humidity
%
barometer
mb
20260510021108 47 352 0.0 0.0 0.00 0.00 0.00 97 1006.5
20260510020601 47 352 0.0 0.0 0.00 0.00 0.00 97 1006.4
20260510020057 48 351 0.0 0.0 0.00 0.00 0.00 97 1006.3
20260510015553 48 351 0.0 0.0 0.00 0.00 0.00 97 1006.3
20260510015049 48 351 0.0 0.0 0.00 0.00 0.00 97 1006.2
20260510014546 48 351 0.0 0.0 0.00 0.00 0.00 97 1005.9
20260510014043 48 351 0.0 0.0 0.00 0.00 0.00 96 1006.1
20260510013538 49 351 0.0 0.0 0.00 0.00 0.00 97 1005.9
20260510013034 49 351 0.0 0.0 0.00 0.00 0.00 96 1005.9
20260510012528 49 351 0.0 0.0 0.00 0.00 0.00 96 1005.9
20260510012024 49 351 0.0 0.0 0.00 0.00 0.00 95 1005.6
20260510011519 50 351 0.0 0.0 0.00 0.00 0.00 95 1005.5
20260510011014 50 351 0.0 0.0 0.00 0.00 0.00 95 1005.4
20260510010512 50 354 0.0 0.0 0.00 0.00 0.00 94 1005.2
20260510010009 50 354 0.0 0.0 0.00 0.00 0.00 93 1005.4
20260510005504 51 354 0.0 0.0 0.00 0.00 0.00 93 1005.3
20260510005002 51 354 0.0 0.0 0.00 0.00 0.00 92 1005.2
20260510004459 52 354 0.0 0.0 0.00 0.00 0.00 92 1005.2
20260510003957 52 354 0.0 0.0 0.00 0.00 0.00 91 1005.1
20260510003454 53 354 0.0 0.0 0.00 0.00 0.00 90 1005.1
20260510002949 54 354 0.0 0.0 0.00 0.00 0.00 89 1004.8
20260510002445 54 353 0.0 0.0 0.00 0.00 0.00 89 1004.8
20260510001942 54 353 0.0 0.0 0.00 0.00 0.00 89 1004.8
20260510001439 55 353 0.0 0.0 0.00 0.00 0.00 88 1004.8
20260510000937 55 352 0.0 0.0 0.00 0.00 0.00 87 1004.5
20260510000433 56 353 0.0 0.0 0.00 0.00 0.00 86 1004.5
20260509235929 57 352 0.0 0.0 0.00 0.00 0.00 84 1004.5
20260509235426 58 352 0.0 0.0 0.00 0.00 0.00 82 1004.7
20260509234922 59 352 0.0 0.0 0.00 0.00 0.00 81 1004.4
20260509234419 59 352 0.0 0.0 0.00 0.00 0.00 80 1004.7
20260509233917 60 352 0.0 0.0 0.00 0.00 0.00 78 1004.8
20260509233415 61 352 0.0 0.0 0.00 0.00 0.00 78 1004.5
20260509232911 62 352 0.0 0.0 0.00 0.00 0.00 77 1004.4
20260509232409 63 352 0.0 0.0 0.00 0.00 0.00 75 1004.5
20260509231904 65 352 0.0 0.0 0.00 0.00 0.00 71 1004.7
20260509231401 66 350 0.0 0.0 0.00 0.00 0.00 61 1004.7
20260509230859 67 4 0.0 0.0 0.00 0.00 0.00 58 1004.5
20260509230356 67 354 0.0 0.0 0.00 0.00 0.00 53 1004.7
20260509225851 67 354 0.0 0.0 0.00 0.00 0.00 58 1004.5
20260509225348 68 336 0.0 0.0 0.00 0.00 0.00 56 1004.4
20260509224844 68 0 0.0 0.0 0.00 0.00 0.00 52 1004.8
20260509224340 69 346 0.0 0.9 0.00 0.00 0.00 51 1004.7
20260509223837 69 0 0.9 0.9 0.00 0.00 0.00 52 1004.7
20260509223334 69 345 0.0 0.0 0.00 0.00 0.00 50 1004.9
20260509222831 69 352 0.0 0.0 0.00 0.00 0.00 52 1004.7
20260509222326 69 333 0.9 0.9 0.00 0.00 0.00 50 1004.8
20260509221822 69 25 0.0 0.9 0.00 0.00 0.00 56 1004.5
20260509221320 69 305 0.9 0.9 0.00 0.00 0.00 57 1004.9
20260509220819 69 318 0.9 0.9 0.00 0.00 0.00 60 1004.7
20260509220316 68 19 0.0 0.9 0.00 0.00 0.00 60 1004.7
20260509215811 68 3 0.0 0.0 0.00 0.00 0.00 59 1004.9
20260509215308 68 351 0.0 0.9 0.00 0.00 0.00 60 1004.7
20260509214805 67 16 0.0 0.0 0.00 0.00 0.00 61 1004.7
20260509214302 67 303 2.6 2.6 0.00 0.00 0.00 63 1004.7
20260509213759 67 359 0.0 0.0 0.00 0.00 0.00 62 1004.7
20260509213255 68 354 0.9 0.9 0.00 0.00 0.00 62 1004.8
20260509212752 68 345 0.9 0.9 0.00 0.00 0.00 60 1004.5
20260509212250 67 346 0.0 0.9 0.00 0.00 0.00 62 1004.5
20260509211745 68 307 0.9 1.7 0.00 0.00 0.00 62 1004.5
20260509211242 68 355 0.9 0.9 0.00 0.00 0.00 58 1004.5
20260509210738 68 0 0.0 0.0 0.00 0.00 0.00 55 1004.4
20260509210237 68 351 0.9 0.9 0.00 0.00 0.00 55 1004.2
20260509205735 68 11 0.9 0.9 0.00 0.00 0.00 55 1004.3
20260509205230 68 11 0.9 1.7 0.00 0.00 0.00 56 1004.3
20260509204726 68 14 0.9 0.9 0.00 0.00 0.00 54 1004.4
20260509204223 68 8 0.0 0.0 0.00 0.00 0.00 57 1004.2
20260509203719 68 9 0.0 0.0 0.00 0.00 0.00 54 1004.1
20260509203217 68 8 0.0 0.0 0.00 0.00 0.00 55 1004.0
20260509202712 68 10 0.0 0.0 0.00 0.00 0.00 55 1004.1
20260509202208 68 355 0.9 0.9 0.00 0.00 0.00 56 1004.4
20260509201703 68 358 0.0 0.0 0.00 0.00 0.00 55 1004.4
20260509201200 68 26 0.0 0.9 0.00 0.00 0.00 50 1004.5
20260509200656 68 358 0.0 0.0 0.00 0.00 0.00 50 1004.5
20260509200151 68 78 0.0 0.9 0.00 0.00 0.00 51 1004.3
20260509195647 68 357 0.0 0.0 0.00 0.00 0.00 50 1004.4
20260509195143 68 6 0.0 0.9 0.00 0.00 0.00 51 1004.2
20260509194637 68 9 0.0 0.9 0.00 0.00 0.00 50 1004.2
20260509194134 68 1 0.0 0.0 0.00 0.00 0.00 52 1004.3
20260509193630 68 346 0.0 0.9 0.00 0.00 0.00 53 1004.3
20260509193126 68 1 0.0 0.0 0.00 0.00 0.00 51 1004.4
20260509192623 68 356 0.0 0.0 0.00 0.00 0.00 52 1004.7
20260509192118 69 316 1.7 1.7 0.00 0.00 0.00 52 1004.5
20260509191612 70 26 0.0 0.0 0.00 0.00 0.00 52 1004.5
20260509191109 68 314 1.7 1.7 0.00 0.00 0.00 53 1004.4
20260509190606 68 310 0.9 0.9 0.00 0.00 0.00 54 1004.8
20260509190103 69 76 0.9 1.7 0.00 0.00 0.00 53 1004.5
20260509185601 68 307 1.7 2.6 0.00 0.00 0.00 55 1004.4
20260509185056 68 5 2.6 3.5 0.00 0.00 0.00 54 1004.4
20260509184555 69 359 0.9 1.7 0.00 0.00 0.00 59 1004.7
20260509184051 69 347 0.9 1.7 0.00 0.00 0.00 57 1004.4
20260509183547 68 350 0.9 1.7 0.00 0.00 0.00 55 1004.5
20260509183043 68 330 1.7 2.6 0.00 0.00 0.00 55 1004.5
20260509182539 66 314 1.7 2.6 0.00 0.00 0.00 59 1005.1
20260509182036 67 293 0.9 1.7 0.00 0.00 0.00 61 1005.0
20260509181534 66 2 0.9 0.9 0.00 0.00 0.00 64 1004.9
20260509181031 66 347 1.7 2.6 0.00 0.00 0.00 65 1005.2
20260509180527 65 347 0.9 1.7 0.00 0.00 0.00 62 1005.2
20260509180025 65 351 1.7 2.6 0.00 0.00 0.00 62 1005.3
20260509175520 64 352 0.0 0.9 0.00 0.00 0.00 65 1005.5
20260509175017 64 345 0.0 0.9 0.00 0.00 0.00 64 1005.5
20260509174514 64 351 3.5 5.2 0.00 0.00 0.00 63 1005.4
20260509174014 63 6 0.0 0.9 0.00 0.00 0.00 67 1005.5
20260509173508 63 351 0.9 0.9 0.00 0.00 0.00 65 1005.6
20260509173005 63 313 1.7 1.7 0.00 0.00 0.00 67 1005.5
20260509172502 63 2 0.0 0.0 0.00 0.00 0.00 65 1005.5
20260509171957 62 356 0.0 0.0 0.00 0.00 0.00 67 1005.5
20260509171454 62 53 1.7 2.6 0.00 0.00 0.00 65 1005.9
20260509170950 62 7 0.9 1.7 0.00 0.00 0.00 67 1006.1
20260509170446 61 160 0.0 0.0 0.00 0.00 0.00 67 1006.2
20260509165942 61 15 0.0 0.9 0.00 0.00 0.00 65 1006.1
20260509165441 61 344 0.0 0.0 0.00 0.00 0.00 65 1006.3
20260509164937 62 66 0.9 1.7 0.00 0.00 0.00 64 1006.2
20260509164433 61 14 0.0 0.0 0.00 0.00 0.00 65 1006.2
20260509163929 61 348 1.7 1.7 0.00 0.00 0.00 68 1006.3
20260509163427 61 28 0.0 0.9 0.00 0.00 0.00 67 1006.5
20260509162925 60 20 0.0 0.0 0.00 0.00 0.00 67 1006.6
20260509162425 60 39 1.7 1.7 0.00 0.00 0.00 67 1006.5
20260509161920 61 14 0.9 0.9 0.00 0.00 0.00 66 1006.6
20260509161416 60 354 0.9 0.9 0.00 0.00 0.00 71 1006.7
20260509160912 60 351 0.0 0.0 0.00 0.00 0.00 73 1006.4
20260509160408 60 353 0.0 0.0 0.00 0.00 0.00 70 1006.6
20260509155904 60 337 1.7 1.7 0.00 0.00 0.00 70 1006.5
20260509155401 60 344 0.9 0.9 0.00 0.00 0.00 71 1006.5
20260509154857 60 345 0.0 0.0 0.00 0.00 0.00 69 1006.6
20260509154354 60 8 0.9 1.7 0.00 0.00 0.00 72 1006.5
20260509153850 59 355 0.0 0.0 0.00 0.00 0.00 72 1006.7
20260509153348 59 350 0.9 0.9 0.00 0.00 0.00 71 1006.8
20260509152844 60 354 0.0 0.0 0.00 0.00 0.00 74 1006.5
20260509152340 60 357 0.9 0.9 0.00 0.00 0.00 71 1006.7
20260509151838 61 356 0.9 1.7 0.00 0.00 0.00 70 1006.4
20260509151333 61 76 1.7 1.7 0.00 0.00 0.00 69 1006.4
20260509150832 60 353 0.9 1.7 0.00 0.00 0.00 71 1006.6
20260509150330 60 350 0.9 0.9 0.00 0.00 0.00 72 1006.7
20260509145827 60 41 0.9 0.9 0.00 0.00 0.00 74 1006.7
20260509145321 59 321 0.9 0.9 0.00 0.00 0.00 72 1006.7
20260509144818 59 17 1.7 1.7 0.00 0.00 0.00 76 1006.5
20260509144315 59 318 1.7 1.7 0.00 0.00 0.00 75 1006.5
20260509143812 59 356 0.0 0.0 0.00 0.00 0.00 76 1006.6
20260509143310 59 19 0.0 0.0 0.00 0.00 0.00 74 1006.6
20260509142806 59 359 0.0 0.0 0.00 0.00 0.00 76 1006.7
20260509142306 58 5 0.0 0.0 0.00 0.00 0.00 74 1006.7
20260509141757 57 40 0.9 0.9 0.00 0.00 0.00 76 1006.7
20260509141255 57 18 0.9 0.9 0.00 0.00 0.00 76 1006.9
20260509140751 57 316 0.9 0.9 0.00 0.00 0.00 77 1006.9
20260509140248 57 6 0.0 0.0 0.00 0.00 0.00 79 1007.0
20260509135746 57 347 0.9 1.7 0.00 0.00 0.00 78 1006.9
20260509135244 56 357 0.0 0.0 0.00 0.00 0.00 78 1006.8
20260509134740 56 352 0.0 0.0 0.00 0.00 0.00 79 1006.7
20260509134238 55 352 0.0 0.0 0.00 0.00 0.00 82 1007.0
20260509133735 55 352 0.0 0.0 0.00 0.00 0.00 84 1007.0
20260509133231 55 354 0.0 0.0 0.00 0.00 0.00 82 1006.7
20260509132730 55 354 0.0 0.0 0.00 0.00 0.00 82 1006.7
20260509132228 55 2 0.0 0.0 0.00 0.00 0.00 82 1006.4
20260509131725 54 352 0.0 0.0 0.00 0.00 0.00 84 1006.7
20260509131221 53 352 0.0 0.0 0.00 0.00 0.00 89 1006.7
20260509130717 53 0 0.0 0.0 0.00 0.00 0.00 90 1006.6
20260509130213 53 31 0.9 0.9 0.00 0.00 0.00 87 1006.5
20260509125710 53 349 0.0 0.0 0.00 0.00 0.00 89 1006.3
20260509125207 53 18 0.0 0.0 0.00 0.00 0.00 90 1006.6
20260509124703 53 2 0.0 0.0 0.00 0.00 0.00 89 1006.9
20260509124200 53 4 0.0 0.0 0.00 0.00 0.00 88 1007.0
20260509123659 54 352 0.0 0.0 0.00 0.00 0.00 87 1007.0
20260509123155 53 331 0.9 0.9 0.00 0.00 0.00 87 1007.1
20260509122650 53 8 0.0 0.0 0.00 0.00 0.00 85 1006.8
20260509122142 53 2 0.0 0.0 0.00 0.00 0.00 85 1006.9
20260509121638 53 3 0.0 0.0 0.00 0.00 0.00 86 1006.9
20260509121137 52 2 0.0 0.0 0.00 0.00 0.00 85 1006.9
20260509120634 52 1 0.0 0.0 0.00 0.00 0.00 88 1007.1
20260509120132 52 2 0.0 0.0 0.00 0.00 0.00 88 1007.1
20260509115629 52 4 0.0 0.0 0.00 0.00 0.00 89 1006.9
20260509115127 52 4 0.0 0.0 0.00 0.00 0.00 89 1006.9
20260509114625 51 4 0.0 0.0 0.00 0.00 0.00 89 1006.5
20260509114124 51 4 0.0 0.0 0.00 0.00 0.00 89 1006.9
20260509113621 51 4 0.0 0.0 0.00 0.00 0.00 89 1006.7
20260509113119 51 5 0.0 0.0 0.00 0.00 0.00 88 1006.5
20260509112615 51 4 0.0 0.0 0.00 0.00 0.00 88 1006.7
20260509112112 51 5 0.0 0.0 0.00 0.00 0.00 87 1006.4
20260509111609 51 4 0.0 0.0 0.00 0.00 0.00 88 1006.7
20260509111106 50 5 0.0 0.0 0.00 0.00 0.00 87 1006.8
20260509110603 50 4 0.0 0.0 0.00 0.00 0.00 89 1006.6
20260509110100 50 0 0.0 0.0 0.00 0.00 0.00 88 1006.4
20260509105558 50 4 0.0 0.0 0.00 0.00 0.00 87 1006.5
20260509105055 50 359 0.0 0.0 0.00 0.00 0.00 87 1006.6
20260509104552 50 352 0.0 0.0 0.00 0.00 0.00 89 1006.4
20260509104049 50 344 0.0 0.0 0.00 0.00 0.00 89 1006.5
20260509103547 50 11 0.0 0.0 0.00 0.00 0.00 88 1006.3
20260509103045 50 11 0.0 0.0 0.00 0.00 0.00 88 1006.3
20260509102542 50 11 0.0 0.0 0.00 0.00 0.00 88 1006.3
20260509102039 50 12 0.0 0.0 0.00 0.00 0.00 86 1006.1
20260509101535 50 12 0.0 0.0 0.00 0.00 0.00 86 1006.0
20260509101032 50 13 0.0 0.9 0.00 0.00 0.00 85 1006.0
20260509100529 50 12 0.0 0.0 0.00 0.00 0.00 85 1006.2
20260509100027 50 1 0.0 0.0 0.00 0.00 0.00 85 1006.0
20260509095523 50 1 0.0 0.0 0.00 0.00 0.00 86 1005.9
20260509095021 50 2 0.0 0.0 0.00 0.00 0.00 85 1005.8
20260509094516 50 359 0.0 0.9 0.00 0.00 0.00 90 1005.9
20260509094014 50 0 0.0 0.0 0.00 0.00 0.00 90 1005.8
20260509093512 50 4 0.0 0.0 0.00 0.00 0.00 90 1005.7
20260509093010 50 4 0.0 0.0 0.00 0.00 0.00 91 1005.8
20260509092507 50 3 0.0 0.0 0.00 0.00 0.00 91 1005.6
20260509092006 50 4 0.0 0.0 0.00 0.00 0.00 91 1005.8
20260509091503 50 4 0.0 0.0 0.00 0.00 0.00 91 1006.0
20260509090959 50 4 0.0 0.0 0.00 0.00 0.00 91 1005.8
20260509090456 50 4 0.0 0.0 0.00 0.00 0.00 92 1005.9
20260509085954 50 4 0.0 0.0 0.00 0.00 0.00 92 1005.9
20260509085451 50 4 0.0 0.0 0.00 0.00 0.00 91 1005.9
20260509084947 50 4 0.0 0.0 0.00 0.00 0.00 93 1006.1
20260509084444 50 4 0.0 0.0 0.00 0.00 0.00 92 1005.8
20260509083941 50 4 0.0 0.0 0.00 0.00 0.00 91 1005.7
20260509083439 49 4 0.0 0.0 0.00 0.00 0.00 90 1005.8
20260509082935 49 4 0.0 0.0 0.00 0.00 0.00 92 1006.0
20260509082432 49 4 0.0 0.0 0.00 0.00 0.00 92 1006.0
20260509081929 49 4 0.0 0.0 0.00 0.00 0.00 92 1005.9
20260509081427 49 4 0.0 0.0 0.00 0.00 0.00 92 1006.0
20260509080924 49 4 0.0 0.0 0.00 0.00 0.00 92 1006.1
20260509080422 49 4 0.0 0.0 0.00 0.00 0.00 91 1005.9
20260509075920 49 4 0.0 0.0 0.00 0.00 0.00 91 1006.2
20260509075416 48 4 0.0 0.0 0.00 0.00 0.00 91 1006.0
20260509074914 48 4 0.0 0.0 0.00 0.00 0.00 91 1006.3
20260509074412 48 4 0.0 0.0 0.00 0.00 0.00 91 1006.3
20260509073908 48 4 0.0 0.0 0.00 0.00 0.00 92 1006.2
20260509073404 48 4 0.0 0.0 0.00 0.00 0.00 92 1006.3
20260509072901 48 4 0.0 0.0 0.00 0.00 0.00 92 1006.2
20260509072357 48 4 0.0 0.0 0.00 0.00 0.00 93 1006.2
20260509071854 48 4 0.0 0.0 0.00 0.00 0.00 92 1006.3
20260509071351 47 4 0.0 0.0 0.00 0.00 0.00 92 1006.4
20260509070848 47 4 0.0 0.0 0.00 0.00 0.00 92 1006.5
20260509070345 47 3 0.0 0.0 0.00 0.00 0.00 92 1006.4
20260509065841 47 3 0.0 0.0 0.00 0.00 0.00 93 1006.4
20260509065337 46 3 0.0 0.0 0.00 0.00 0.00 93 1006.5
20260509064833 46 3 0.0 0.0 0.00 0.00 0.00 93 1006.3
20260509064331 46 3 0.0 0.0 0.00 0.00 0.00 93 1006.6
20260509063829 46 3 0.0 0.0 0.00 0.00 0.00 93 1006.5
20260509063324 47 3 0.0 0.0 0.00 0.00 0.00 93 1006.4
20260509062822 46 3 0.0 0.0 0.00 0.00 0.00 93 1006.6
20260509062319 46 3 0.0 0.0 0.00 0.00 0.00 93 1006.5
20260509061816 46 3 0.0 0.0 0.00 0.00 0.00 92 1006.7
20260509061314 46 3 0.0 0.0 0.00 0.00 0.00 92 1006.9
20260509060811 46 3 0.0 0.0 0.00 0.00 0.00 92 1006.8
20260509060308 47 4 0.0 0.0 0.00 0.00 0.00 91 1006.8
20260509055803 47 4 0.0 0.0 0.00 0.00 0.00 91 1006.9
20260509055259 47 4 0.0 0.0 0.00 0.00 0.00 91 1006.9
20260509054756 47 4 0.0 0.0 0.00 0.00 0.00 90 1007.0
20260509054252 48 4 0.0 0.0 0.00 0.00 0.00 90 1007.0
20260509053751 48 4 0.0 0.0 0.00 0.00 0.00 90 1007.0
20260509053248 48 4 0.0 0.0 0.00 0.00 0.00 89 1007.0
20260509052746 48 4 0.0 0.0 0.00 0.00 0.00 88 1007.1
20260509052243 48 2 0.0 0.0 0.00 0.00 0.00 90 1007.1
20260509051741 48 4 0.0 0.0 0.00 0.00 0.00 88 1007.0
20260509051239 48 2 0.0 0.0 0.00 0.00 0.00 89 1007.2
20260509050735 48 3 0.0 0.0 0.00 0.00 0.00 90 1007.1
20260509050231 48 4 0.0 0.0 0.00 0.00 0.00 89 1007.1
20260509045729 48 4 0.0 0.0 0.00 0.00 0.00 89 1007.0
20260509045226 48 359 0.0 0.0 0.00 0.00 0.00 89 1007.0
20260509044723 48 358 0.0 0.0 0.00 0.00 0.00 89 1006.9
20260509044221 48 359 0.0 0.0 0.00 0.00 0.00 90 1006.8
20260509043717 47 359 0.0 0.0 0.00 0.00 0.00 89 1006.8
20260509043213 47 359 0.0 0.0 0.00 0.00 0.00 90 1007.0
20260509042709 47 359 0.0 0.0 0.00 0.00 0.00 90 1007.1
20260509042205 47 359 0.0 0.0 0.00 0.00 0.00 91 1007.0
20260509041702 47 359 0.0 0.0 0.00 0.00 0.00 91 1007.1
20260509041200 47 359 0.0 0.0 0.00 0.00 0.00 90 1007.1
20260509040658 47 359 0.0 0.0 0.00 0.00 0.00 90 1007.2
20260509040154 47 359 0.0 0.0 0.00 0.00 0.00 89 1007.1
20260509035651 48 359 0.0 0.0 0.00 0.00 0.00 90 1007.1
20260509035148 48 359 0.0 0.0 0.00 0.00 0.00 89 1007.0
20260509034645 48 359 0.0 0.0 0.00 0.00 0.00 88 1007.4
20260509034142 48 359 0.0 0.0 0.00 0.00 0.00 86 1007.3
20260509033639 49 356 0.0 0.0 0.00 0.00 0.00 87 1007.1
20260509033136 49 9 0.0 0.0 0.00 0.00 0.00 84 1007.1
20260509032634 50 2 0.0 0.0 0.00 0.00 0.00 84 1007.2
20260509032130 50 3 0.0 0.0 0.00 0.00 0.00 84 1007.3
20260509031628 50 311 0.9 0.9 0.00 0.00 0.00 83 1007.2
20260509031125 51 14 0.0 0.9 0.00 0.00 0.00 84 1007.2
20260509030624 51 347 0.0 0.0 0.00 0.00 0.00 82 1007.2
20260509030121 52 359 0.0 0.0 0.00 0.00 0.00 83 1007.1
20260509025616 52 355 0.0 0.0 0.00 0.00 0.00 81 1007.3
20260509025112 52 12 0.0 0.0 0.00 0.00 0.00 83 1007.2
20260509024608 52 340 0.9 0.9 0.00 0.00 0.00 84 1007.3
20260509024104 52 12 0.0 0.0 0.00 0.00 0.00 83 1007.4
20260509023602 52 12 0.0 0.0 0.00 0.00 0.00 84 1007.5
20260509023059 52 12 0.0 0.0 0.00 0.00 0.00 85 1007.8
20260509022555 52 14 0.0 0.0 0.00 0.00 0.00 84 1007.5
20260509022053 51 4 0.0 0.0 0.00 0.00 0.00 84 1007.9
20260509021550 51 4 0.0 0.0 0.00 0.00 0.00 85 1007.4